EW8374 Weather Reports


time (UTC)temp
F
wind
direction
speed
knots
gust
knots
rain 1hr
in
rain 24hr
in
rain mn
in
humidity
%
barometer
mb
20260504045634 41 311 0.0 0.0 0.00 0.00 0.00 85 1408.6
20260504045129 40 311 0.0 0.0 0.00 0.00 0.00 84 1408.6
20260504044623 40 311 0.0 0.0 0.00 0.00 0.00 83 1408.6
20260504044117 40 311 0.0 0.0 0.00 0.00 0.00 83 1408.4
20260504043611 40 311 0.0 0.0 0.00 0.00 0.00 82 1408.6
20260504043105 40 311 0.0 0.0 0.00 0.00 0.00 82 1408.6
20260504042559 39 311 0.0 0.0 0.00 0.00 0.00 82 1408.4
20260504041546 40 311 0.0 0.0 0.00 0.00 0.00 80 1408.3
20260504041041 40 311 0.0 0.0 0.00 0.00 0.00 81 1408.3
20260504040535 40 311 0.0 0.0 0.00 0.00 0.00 80 1408.3
20260504040030 40 311 0.0 0.0 0.00 0.00 0.00 80 1408.4
20260504035523 40 311 0.0 0.0 0.00 0.00 0.00 81 1408.4
20260504035017 40 311 0.0 0.0 0.00 0.00 0.00 80 1408.4
20260504034005 40 311 0.0 0.0 0.00 0.00 0.00 80 1408.4
20260504033500 40 311 0.0 0.0 0.00 0.00 0.00 80 1408.4
20260504032953 41 311 0.0 0.0 0.00 0.00 0.00 80 1408.4
20260504032447 41 311 0.0 0.0 0.00 0.00 0.00 79 1408.4
20260504031940 41 311 0.0 0.0 0.00 0.00 0.00 79 1408.4
20260504031436 41 311 0.0 0.0 0.00 0.00 0.00 79 1408.6
20260504030929 41 311 0.0 0.0 0.00 0.00 0.00 79 1408.6
20260504030423 41 311 0.0 0.0 0.00 0.00 0.00 78 1408.6
20260504025917 42 311 0.0 0.0 0.00 0.00 0.00 78 1408.6
20260504025411 42 311 0.0 0.0 0.00 0.00 0.00 78 1408.7
20260504024359 42 311 0.0 0.0 0.00 0.00 0.00 77 1408.6
20260504023853 42 311 0.0 0.0 0.00 0.00 0.00 77 1408.7
20260504023347 42 311 0.0 0.0 0.00 0.00 0.00 76 1408.8
20260504022841 43 311 0.0 0.0 0.00 0.00 0.00 76 1408.7
20260504022335 43 311 0.0 0.9 0.00 0.00 0.00 76 1408.7
20260504020817 44 311 0.0 1.7 0.00 0.00 0.00 74 1408.7
20260504020311 44 311 0.0 0.0 0.00 0.00 0.00 72 1408.6
20260504015806 44 311 0.0 0.0 0.00 0.00 0.00 71 1408.7
20260504015259 44 311 0.0 0.0 0.00 0.00 0.00 71 1408.7
20260504014753 45 311 0.0 0.0 0.00 0.00 0.00 71 1408.7
20260504014247 45 311 0.0 0.0 0.00 0.00 0.00 70 1408.7
20260504013740 45 311 0.0 0.0 0.00 0.00 0.00 70 1408.6
20260504013235 46 311 0.0 1.7 0.00 0.00 0.00 69 1408.6
20260504012223 46 287 0.0 1.7 0.00 0.00 0.00 66 1408.4
20260504011718 47 218 0.0 0.0 0.00 0.00 0.00 66 1408.3
20260504011211 47 218 0.0 0.0 0.00 0.00 0.00 66 1408.3
20260504010159 48 218 0.0 0.0 0.00 0.00 0.00 64 1408.3
20260504005653 49 218 0.0 0.0 0.00 0.00 0.00 63 1408.3
20260504005147 49 218 0.0 0.0 0.00 0.00 0.00 61 1408.3
20260504004641 49 218 0.0 0.0 0.00 0.00 0.00 60 1408.3
20260504003629 51 218 0.0 0.0 0.00 0.00 0.00 58 1408.3
20260504003123 51 218 0.0 0.0 0.00 0.00 0.00 57 1408.3
20260504002616 52 218 0.0 0.0 0.00 0.00 0.00 55 1408.3
20260504001605 53 218 0.0 0.0 0.00 0.00 0.00 54 1408.3
20260504001059 53 201 0.0 0.0 0.00 0.00 0.00 51 1408.2
20260504000552 54 201 0.0 0.0 0.00 0.00 0.00 50 1408.2
20260504000047 54 205 0.0 1.7 0.00 0.00 0.00 48 1408.2
20260503235541 55 201 0.0 1.7 0.00 0.00 0.00 49 1408.2
20260503235040 55 230 0.9 2.6 0.00 0.00 0.00 48 1408.2
20260503234541 55 237 1.7 3.5 0.00 0.00 0.00 46 1408.2
20260503233037 56 240 1.7 7.0 0.00 0.00 0.00 44 1408.3
20260503232537 56 263 2.6 7.0 0.00 0.00 0.00 43 1408.3
20260503232038 56 277 4.3 10.4 0.00 0.00 0.00 43 1408.3
20260503231538 57 207 4.3 10.4 0.00 0.00 0.00 42 1408.3
20260503231037 57 230 3.5 7.0 0.00 0.00 0.00 42 1408.2
20260503230037 57 254 2.6 7.0 0.00 0.00 0.00 41 1408.4
20260503225540 57 302 3.5 9.6 0.00 0.00 0.00 43 1408.4
20260503225033 57 240 4.3 9.6 0.00 0.00 0.00 42 1408.3
20260503224534 57 266 5.2 11.3 0.00 0.00 0.00 43 1408.4
20260503224033 57 252 4.3 11.3 0.00 0.00 0.00 43 1408.6
20260503223534 57 207 3.5 9.6 0.00 0.00 0.00 44 1408.6
20260503222533 57 232 4.3 10.4 0.00 0.00 0.00 42 1408.6
20260503221533 58 224 4.3 8.7 0.00 0.00 0.00 43 1408.6
20260503221034 58 233 3.5 8.7 0.00 0.00 0.00 42 1408.4
20260503220529 57 304 4.3 10.4 0.00 0.00 0.00 42 1408.6
20260503220029 57 262 7.0 13.9 0.00 0.00 0.00 42 1408.6
20260503215029 58 233 5.2 11.3 0.00 0.00 0.00 40 1408.4
20260503214530 58 297 5.2 15.6 0.00 0.00 0.00 39 1408.4
20260503214029 58 209 6.1 15.6 0.00 0.00 0.00 41 1408.4
20260503213529 58 263 6.1 12.2 0.00 0.00 0.00 42 1408.4
20260503212027 59 263 5.2 12.2 0.00 0.00 0.00 40 1408.3
20260503211527 58 266 5.2 12.2 0.00 0.00 0.00 42 1408.3
20260503210027 58 215 6.1 11.3 0.00 0.00 0.00 41 1408.6
20260503205527 58 305 7.0 14.8 0.00 0.00 0.00 40 1408.6
20260503204528 59 217 5.2 15.6 0.00 0.00 0.00 40 1408.8
20260503204028 58 240 5.2 9.6 0.00 0.00 0.00 43 1408.8
20260503203525 58 305 5.2 10.4 0.00 0.00 0.00 42 1409.0
20260503203026 59 284 4.3 11.3 0.00 0.00 0.00 43 1409.1
20260503202525 59 197 4.3 11.3 0.00 0.00 0.00 42 1409.1
20260503202025 59 283 5.2 9.6 0.00 0.00 0.00 42 1409.2
20260503201525 59 164 6.1 11.3 0.00 0.00 0.00 42 1409.4
20260503201026 59 244 4.3 11.3 0.00 0.00 0.00 42 1409.2
20260503200019 58 199 5.2 13.0 0.00 0.00 0.00 45 1409.4
20260503195512 57 206 7.8 15.6 0.00 0.00 0.00 44 1409.5
20260503195006 57 237 6.1 15.6 0.00 0.00 0.00 43 1409.5
20260503194500 56 225 2.6 11.3 0.00 0.00 0.00 45 1409.5
20260503193954 56 285 4.3 14.8 0.00 0.00 0.00 45 1409.8
20260503193448 56 261 7.0 14.8 0.00 0.00 0.00 42 1409.9
20260503192435 57 263 6.1 11.3 0.00 0.00 0.00 46 1409.9
20260503191929 57 237 6.1 15.6 0.00 0.00 0.00 44 1410.2
20260503191424 56 279 4.3 15.6 0.00 0.00 0.00 44 1410.2
20260503190918 56 284 4.3 8.7 0.00 0.00 0.00 44 1410.5
20260503190412 56 261 5.2 12.2 0.00 0.00 0.00 44 1410.5
20260503184854 56 156 5.2 10.4 0.00 0.00 0.00 48 1410.6
20260503184348 56 265 5.2 9.6 0.00 0.00 0.00 46 1410.9
20260503183842 56 217 3.5 9.6 0.00 0.00 0.00 45 1410.7
20260503183336 55 280 3.5 10.4 0.00 0.00 0.00 48 1410.7
20260503182830 55 246 4.3 12.2 0.00 0.00 0.00 44 1411.0
20260503182324 55 241 4.3 12.2 0.00 0.00 0.00 45 1410.9
20260503181818 55 251 5.2 10.4 0.00 0.00 0.00 45 1411.1
20260503181312 55 261 6.1 15.6 0.00 0.00 0.00 44 1411.3
20260503180806 56 273 7.0 15.6 0.00 0.00 0.00 44 1411.3
20260503180300 55 270 7.0 13.9 0.00 0.00 0.00 46 1411.3
20260503175754 55 232 7.0 13.0 0.00 0.00 0.00 46 1411.4
20260503175248 55 248 6.1 11.3 0.00 0.00 0.00 45 1411.5
20260503174742 54 242 6.1 11.3 0.00 0.00 0.00 43 1411.4
20260503174236 55 229 5.2 11.3 0.00 0.00 0.00 43 1411.5
20260503173729 55 271 6.1 10.4 0.00 0.00 0.00 45 1411.7
20260503173223 54 196 6.1 11.3 0.00 0.00 0.00 44 1411.8
20260503172718 54 257 4.3 11.3 0.00 0.00 0.00 45 1411.8
20260503172212 54 92 5.2 13.0 0.00 0.00 0.00 44 1411.8
20260503171706 54 319 4.3 13.0 0.00 0.00 0.00 45 1411.8
20260503171200 55 269 4.3 10.4 0.00 0.00 0.00 50 1411.9
20260503170654 54 225 4.3 10.4 0.00 0.00 0.00 48 1412.1
20260503170147 54 304 3.5 8.7 0.00 0.00 0.00 52 1412.1
20260503150536 49 237 4.3 11.3 0.00 0.00 0.00 54 1413.2
20260503131030 44 259 4.3 9.6 0.00 0.00 0.00 73 1413.7
20260503130525 43 248 3.5 9.6 0.00 0.00 0.00 75 1413.6
20260503100253 34 302 0.0 0.0 0.00 0.00 0.00 90 1411.8
20260503090141 36 273 1.7 3.5 0.00 0.00 0.00 89 1411.5
20260503081546 37 252 1.7 3.5 0.00 0.00 0.00 88 1411.4
20260503081041 37 250 0.9 2.6 0.00 0.00 0.00 88 1411.4
20260503072447 36 302 1.7 5.2 0.00 0.00 0.00 90 1411.0
20260503071941 36 272 1.7 5.2 0.00 0.00 0.00 91 1411.0
20260503071435 35 271 1.7 3.5 0.00 0.01 0.00 91 1411.0
20260503070929 35 275 0.9 2.6 0.00 0.01 0.00 91 1411.0
20260503054852 36 306 0.0 1.7 0.00 0.01 0.00 89 1411.0
20260503054351 37 323 0.0 1.7 0.00 0.01 0.00 89 1411.0
20260503053852 37 323 0.0 1.7 0.00 0.01 0.00 88 1411.0